This demonstration page uses our WeatherBlox Daily Observations layout. Learn more.

41.55636, -103.73856

Hourly Observations for July 13, 2019

Temp ( °F °C ) Dew Point ( °F °C ) Humidity (%) Winds ( mph kmh ) Pressure ( in mb ) Visibility ( mi km ) Precip ( " mm )
12:58 am 00:58 Partly Cloudy 75 24 52 10.9 44 44 SW 12 19 29.94 1014 10 16.0934 0 0
1:58 am 01:58 Mostly Cloudy 75 23.9 58 14.3 55 55 Calm 29.95 1014 10 16.0934 0 0
2:58 am 02:58 Mostly Clear 70 21.2 51 10.4 50 50 SSW 9 15 29.98 1015 10 16.0934 0 0
3:58 am 03:58 Clear 64 17.7 53 11.7 68 68 S 8 13 30.01 1016 10 16.0934 0 0
4:58 am 04:58 Clear 63 17.2 53 11.4 69 69 SW 12 19 30 1016 10 16.0934 0 0
5:58 am 05:58 Clear 63 17.1 51 10.3 64 64 WSW 10 17 30.01 1016 10 16.0934 0 0
6:58 am 06:58 Clear 60 15.6 51 10.7 73 73 SSE 7 11 30.02 1017 10 16.0934 0 0
7:58 am 07:58 Clear 59 14.9 52 10.9 77 77 S 8 13 30.01 1016 10 16.0934 0 0
8:58 am 08:58 Clear 59 15 52 10.9 77 77 S 10 17 29.99 1016 10 16.0934 0 0
9:58 am 09:58 Clear 58 14.4 51 10.5 78 78 S 12 19 30 1016 10 16.0934 0 0
10:58 am 10:58 Clear 58 14.5 50 10.1 75 75 SSW 8 13 30 1016 10 16.0934 0 0
11:58 am 11:58 Sunny 58 14.2 50 10 76 76 SSW 8 13 30.01 1016 10 16.0934 0 0
12:58 pm 12:58 Sunny 61 16 52 11.1 73 73 W 5 7 30.01 1016 10 16.0934 0 0
1:58 pm 13:58 Sunny 66 18.7 52 11.1 61 61 N 8 13 30.04 1017 10 16.0934 0 0
2:58 pm 14:58 Sunny 70 21 53 11.5 55 55 Calm 30.03 1017 10 16.0934 0 0
3:58 pm 15:58 Sunny 74 23.5 55 13 52 52 Calm 30.03 1017 10 16.0934 0 0
4:58 pm 16:58 Sunny 77 24.9 53 11.5 43 43 Calm 30.03 1017 10 16.0934 0 0
5:58 pm 17:58 Sunny 79 26.1 56 13.3 45 45 ENE 5 7 30.02 1017 10 16.0934 0 0
6:58 pm 18:58 Sunny 81 27.2 58 14.7 46 46 SE 7 11 30.02 1017 10 16.0934 0 0
7:58 pm 19:58 Sunny 84 29.1 54 12 35 35 SSE 9 15 30 1016 10 16.0934 0 0
8:58 pm 20:58 Sunny 86 29.8 54 12.3 34 34 SE 6 9 29.99 1016 10 16.0934 0 0
9:58 pm 21:58 Sunny 83 28.5 59 15.1 44 44 S 6 9 29.98 1015 10 16.0934 0 0
10:58 pm 22:58 Sunny 83 28.1 63 17.2 52 52 S 5 7 29.98 1015 10 16.0934 0 0
11:58 pm 23:58 Sunny 84 28.9 59 15 43 43 Calm 29.96 1015 10 16.0934 0 0

Powered by AerisWeather